Wind_Speed
11 10 10 10 10 10 10 11 11 11 11 11 12 12 12 12 13 13 13 13 14 14 14 14 14 14 15 15 15 15 14 14 14 15 16 16 16 16 15 15 15 15 15 15 15 15 15 15 16 16 17 17 17 17 17 17 17 17 18 15 13 12 11 12 14 16 18 19 19 22 25 23 21 23 26 23 20 20 19 14 14 17 16 13 15 17 17 16
12 12 12 12 12 12 12 12 13 13 13 14 14 14 14 15 15 15 15 15 16 16 16 16 17 17 17 17 17 17 17 17 17 16 18 19 18 17 15 15 14 14 14 14 14 14 15 15 16 16 17 18 18 17 18 17 17 19 18 17 18 17 16 17 20 20 20 23 23 23 26 26 23 23 27 27 24 22 23 18 15 19 19 16 17 18 19 19
14 14 14 14 14 14 14 15 15 15 15 16 16 16 16 16 17 17 17 17 17 17 18 18 18 19 19 20 20 20 19 19 19 19 19 18 17 15 14 14 15 16 16 17 17 16 16 17 17 18 18 19 19 18 19 20 19 20 21 21 22 21 20 22 24 23 21 23 25 25 25 27 26 24 27 29 28 25 23 21 17 18 19 19 20 21 22 21
15 16 15 16 16 16 16 17 17 17 17 17 17 17 17 17 17 17 18 18 18 18 19 19 19 20 20 21 21 21 21 20 20 19 18 17 16 16 16 17 18 19 19 19 18 18 18 18 18 19 19 20 22 21 20 22 21 22 26 26 25 22 23 25 24 25 24 24 26 25 25 27 26 25 27 29 30 29 23 21 20 19 20 22 23 24 26 24
17 18 17 18 18 18 18 19 19 18 19 19 18 18 18 18 18 18 18 18 18 19 19 20 20 20 20 21 21 22 21 16 17 19 19 19 18 18 19 20 20 20 20 19 18 18 18 18 18 18 20 19 22 23 21 22 22 24 29 29 27 25 27 27 25 29 27 25 26 25 26 28 28 27 27 30 32 30 23 20 21 22 24 26 26 26 27 26
20 20 20 20 20 20 20 20 20 20 20 20 19 19 19 19 19 19 19 19 19 19 20 20 20 21 21 22 22 23 21 14 15 21 22 22 20 20 20 20 20 19 19 18 17 18 18 18 19 19 20 20 22 24 23 24 25 26 30 29 28 28 30 29 27 31 29 27 27 27 29 30 30 29 28 32 34 29 23 22 22 22 24 26 27 27 26 26
22 22 22 22 22 22 22 22 21 21 21 21 20 20 20 20 20 20 20 20 21 20 21 21 21 22 21 23 23 24 24 16 16 22 23 21 20 20 20 19 19 19 18 18 18 19 19 20 20 20 22 22 23 25 25 26 27 29 31 30 29 30 33 30 29 33 32 30 30 30 32 32 31 31 31 34 35 30 25 23 22 22 23 25 26 26 26 26
24 24 23 23 23 23 23 23 23 23 23 22 22 22 22 22 22 22 22 22 22 22 22 21 22 22 22 23 24 26 26 17 15 20 20 19 19 19 19 19 20 19 19 20 20 20 21 22 22 21 23 23 24 27 28 29 29 32 34 31 30 32 34 32 31 34 34 33 33 33 34 32 30 33 36 35 32 30 25 22 23 24 25 26 27 26 27 27
25 25 25 24 24 24 24 24 24 24 24 24 23 23 23 23 23 23 22 22 22 22 22 22 22 22 23 23 24 28 25 16 15 17 17 18 19 20 20 21 22 22 22 21 21 21 21 22 22 23 23 24 27 29 29 30 30 32 34 33 33 33 34 34 34 34 34 34 35 36 34 31 28 32 38 32 28 29 25 24 24 25 27 27 28 28 27 28
26 26 26 26 26 26 26 25 25 25 25 25 25 24 24 24 24 24 24 23 23 23 23 23 23 23 23 24 26 29 24 17 18 18 19 20 21 22 22 23 24 24 24 23 23 23 22 23 23 25 25 26 29 30 29 31 32 32 34 36 35 34 35 35 36 35 35 34 35 36 33 28 26 31 36 29 26 29 27 26 25 24 27 27 28 29 29 30
27 27 27 27 27 27 27 27 26 26 26 26 26 26 25 25 25 25 25 25 25 25 24 25 25 25 25 26 29 30 24 21 22 21 21 22 22 23 24 24 26 25 26 26 25 25 24 25 26 25 25 27 30 30 31 33 33 33 34 36 36 36 36 36 37 36 34 34 32 32 33 31 28 32 35 29 26 28 28 28 28 27 27 27 29 30 31 31
28 28 28 28 28 28 28 28 28 28 27 27 27 27 27 27 27 26 26 26 26 26 26 26 26 26 27 28 29 28 26 25 25 24 23 23 24 25 25 26 27 27 28 28 27 27 26 27 27 26 27 29 29 30 33 34 33 33 34 36 37 37 37 36 36 34 33 33 32 31 32 31 31 35 35 33 31 30 28 28 29 30 29 28 30 30 31 31
28 28 28 28 29 29 29 29 28 28 28 28 27 27 27 27 27 27 27 27 26 26 26 26 27 27 28 29 28 26 27 27 27 26 25 25 25 26 26 27 27 28 28 28 28 27 26 27 27 27 28 29 28 30 33 34 34 34 34 36 38 40 39 36 34 33 31 33 33 31 30 26 29 37 36 32 33 34 33 30 30 31 31 30 32 31 31 29
28 28 28 28 28 28 28 28 28 28 27 27 27 27 27 27 27 27 27 27 27 27 27 27 27 28 29 29 28 28 28 29 29 28 27 27 27 26 26 26 26 26 26 26 26 26 25 26 25 27 28 27 27 29 32 33 34 36 34 34 36 36 36 33 34 36 33 34 36 33 33 31 27 33 36 31 33 37 37 35 33 32 31 32 34 34 32 29
28 28 28 28 29 29 29 29 29 29 29 29 28 28 28 28 29 28 29 28 28 28 28 29 28 29 31 31 30 30 30 30 29 28 27 26 25 25 25 24 25 25 26 26 25 25 24 24 24 25 26 25 25 29 32 29 29 33 32 29 28 27 27 26 27 35 33 33 38 35 32 29 22 26 35 35 36 39 39 38 36 34 32 31 33 34 33 30
30 30 30 30 30 30 30 30 31 31 31 31 30 30 30 30 30 30 30 30 30 29 29 29 29 29 31 30 29 29 29 28 28 27 27 26 26 26 26 26 26 25 25 24 24 24 24 25 25 25 24 24 25 27 28 23 22 27 26 26 26 24 25 21 18 27 32 32 37 38 35 34 34 35 38 37 36 38 38 38 36 35 32 31 31 32 31 31
31 31 31 31 31 31 31 31 32 32 32 32 32 32 31 31 31 31 31 30 30 30 30 30 29 30 31 30 30 30 29 28 28 27 26 25 25 25 24 22 21 21 22 23 25 27 28 28 28 26 25 25 25 24 20 16 19 22 21 24 25 21 22 20 18 25 34 37 36 35 38 43 45 41 39 40 40 39 38 36 34 32 32 31 30 30 30 32
30 30 30 30 30 30 30 31 31 31 31 30 30 30 30 30 30 30 30 29 29 29 29 29 29 29 27 26 28 28 26 25 24 23 22 22 22 23 23 23 24 26 28 30 31 31 30 30 30 25 23 28 28 26 24 22 23 23 22 25 25 23 25 24 26 29 34 37 35 33 37 41 40 36 36 39 39 39 37 33 32 31 29 26 24 24 25 27
27 27 28 28 28 28 28 28 28 28 28 28 28 29 29 29 29 30 29 29 29 28 28 28 28 26 23 24 26 26 25 26 26 25 26 27 28 29 30 31 32 32 33 33 32 32 30 30 30 25 25 30 29 29 31 30 27 25 26 28 29 31 32 31 34 36 36 36 36 38 41 41 39 35 36 37 35 36 35 30 26 22 20 19 19 22 23 24
26 26 26 27 27 27 27 27 26 26 27 27 28 28 28 29 28 30 31 29 28 28 28 28 29 29 28 28 30 29 30 30 30 30 30 30 31 33 34 35 35 34 34 32 31 32 31 28 29 29 30 30 25 25 27 27 25 26 27 30 32 33 32 34 38 40 36 33 33 36 40 39 37 38 39 36 32 31 26 19 13 11 18 26 29 28 26 27
26 26 26 27 27 27 26 27 27 27 27 27 27 28 29 29 28 30 32 31 29 28 29 29 30 31 30 31 31 29 30 30 30 30 29 31 31 33 36 36 35 34 33 30 29 30 30 28 29 30 31 28 24 23 25 26 27 28 29 31 31 30 33 38 38 34 30 30 32 33 35 35 37 41 36 27 22 18 10 7 10 20 31 36 33 27 26 27
27 27 28 28 27 27 27 28 28 27 27 27 28 28 28 28 28 29 32 33 31 28 28 29 30 31 29 31 31 28 30 31 30 30 29 31 32 34 37 37 35 33 30 30 30 28 28 29 29 28 26 24 24 26 26 27 29 31 32 32 29 28 34 35 28 24 25 29 35 35 36 39 39 33 21 14 11 6 2 15 25 32 35 31 27 25 26 27
28 28 28 28 28 28 28 29 29 28 28 28 27 27 27 26 27 28 29 32 32 29 28 29 30 30 28 31 30 29 31 31 31 32 31 32 35 35 37 37 34 31 30 32 32 28 24 20 20 24 25 24 25 27 27 28 30 31 31 28 27 27 29 26 21 21 24 29 35 36 37 38 30 15 6 4 6 6 10 30 33 30 27 24 25 25 26 27
28 28 28 28 28 28 28 29 29 28 28 27 26 25 25 25 26 27 28 31 34 32 29 29 29 28 28 29 29 28 31 31 33 36 32 32 35 35 36 36 34 32 32 33 32 30 27 21 22 27 28 26 25 25 24 25 27 26 24 23 25 26 24 25 26 26 28 29 27 25 27 23 11 1 4 2 10 16 22 27 24 23 24 22 24 25 24 23
27 28 28 27 27 27 27 28 28 27 27 25 25 24 25 25 25 26 27 30 34 32 28 27 26 25 24 24 25 26 29 30 31 34 32 33 34 34 35 35 33 29 28 28 25 26 27 25 25 23 20 19 19 18 16 18 23 22 20 21 24 25 24 27 29 28 28 20 10 12 16 10 2 5 8 12 21 26 19 17 15 19 23 22 24 23 18 15
27 27 27 26 25 25 25 26 26 26 25 24 24 24 24 24 24 25 26 26 28 25 20 18 16 14 13 14 16 17 19 20 21 23 24 26 27 27 28 28 28 24 22 24 23 22 22 21 19 15 13 12 13 14 12 14 21 20 19 21 23 25 26 28 28 26 21 14 14 17 14 12 13 16 19 19 17 15 9 16 18 18 22 23 23 18 11 10
28 29 28 27 26 25 25 25 25 25 25 24 23 23 24 23 24 24 21 17 16 11 8 8 8 8 6 4 6 7 6 6 7 8 10 12 14 15 16 17 20 18 16 17 17 18 17 15 14 12 12 12 13 14 13 12 17 20 20 22 22 23 25 27 27 25 21 23 27 20 9 15 22 19 15 13 10 6 10 19 21 20 21 21 18 13 10 8
31 31 31 29 27 27 26 26 26 26 25 25 24 25 25 24 23 20 13 8 6 3 4 7 7 8 8 4 5 7 7 7 5 6 7 7 8 7 7 9 11 13 12 12 14 15 16 16 16 15 15 16 16 16 13 12 15 19 22 22 22 23 24 25 26 26 24 23 20 9 3 10 19 17 10 7 6 6 14 15 14 15 15 14 11 9 9 5
32 33 32 30 28 27 27 27 27 27 27 27 27 27 26 24 22 16 8 5 5 3 5 8 8 9 9 6 7 7 7 7 7 8 8 8 9 8 8 8 10 13 13 14 16 17 18 19 18 17 17 18 18 17 16 16 17 21 24 25 24 25 25 24 24 23 19 16 17 15 11 10 15 15 8 6 5 9 14 10 9 7 7 8 8 7 8 9
32 35 34 32 30 29 28 28 27 28 29 29 29 28 25 23 19 11 7 7 6 4 5 8 10 12 11 9 9 8 8 8 8 8 8 8 9 10 12 12 13 15 15 18 22 21 22 22 20 20 21 21 21 21 20 19 20 23 24 25 26 25 24 20 16 14 11 11 14 12 14 11 8 7 4 5 8 12 13 12 12 8 5 6 9 11 14 18
27 30 32 31 30 29 29 28 28 30 30 30 28 24 21 18 14 9 7 8 9 7 8 10 13 17 16 13 11 10 9 8 8 9 10 12 13 15 15 15 15 16 18 22 23 21 21 23 24 25 25 24 24 23 23 23 23 23 24 24 22 17 14 11 7 6 6 7 5 2 7 11 10 7 5 5 7 14 16 13 13 12 11 16 17 17 19 22
24 25 27 27 27 27 27 27 28 28 27 25 22 18 17 14 13 15 9 5 6 7 8 10 12 14 12 7 5 6 8 9 10 12 14 17 19 20 19 17 16 16 16 18 18 19 25 30 31 32 32 29 24 23 24 24 20 19 21 19 13 9 8 8 6 5 8 9 7 7 7 9 16 18 15 12 10 15 18 17 18 19 23 26 28 29 28 29
25 25 25 26 25 24 24 23 23 23 21 20 18 17 17 12 10 15 13 7 5 4 4 6 7 9 8 7 8 13 16 17 16 17 19 22 24 26 25 25 23 19 17 19 21 22 24 27 28 27 25 22 17 16 17 18 16 15 17 14 9 7 6 6 6 7 10 10 12 16 13 10 17 19 15 15 19 23 25 27 29 29 29 31 33 35 35 37
21 23 25 27 28 26 24 23 22 22 20 19 19 19 19 16 10 10 13 13 11 8 7 9 10 11 15 19 20 21 21 21 22 24 24 25 26 26 25 24 23 19 17 19 19 18 16 18 18 15 14 15 16 16 16 18 19 20 21 19 15 13 10 7 6 7 10 12 16 18 11 7 11 9 6 10 19 28 32 31 29 28 30 35 37 37 37 38
22 23 25 28 31 31 29 28 27 25 22 21 22 22 24 22 16 14 16 16 17 17 16 16 18 21 24 26 26 26 23 21 23 23 22 21 20 21 19 19 21 20 19 17 14 13 14 16 17 14 14 18 22 21 18 18 19 20 22 20 18 20 19 14 12 15 17 14 16 19 16 19 23 21 20 20 23 30 34 33 33 36 40 42 40 37 35 34
25 25 26 28 31 32 31 31 29 27 26 24 23 27 32 26 17 16 18 17 17 18 18 18 20 23 23 21 22 22 18 16 18 17 18 20 21 24 24 20 21 21 18 18 17 16 17 17 18 18 16 18 21 21 19 19 18 15 16 19 21 22 22 18 15 18 18 12 13 20 23 27 29 27 28 28 29 33 33 31 34 36 38 39 36 35 34 31
28 29 30 29 30 32 33 32 31 31 32 29 28 31 34 30 24 22 22 22 22 19 16 16 17 17 15 13 13 14 12 12 14 15 17 17 17 20 21 18 19 18 15 18 20 19 20 23 26 26 24 23 24 24 24 25 25 23 23 25 23 18 17 16 11 10 12 10 12 19 24 26 22 18 20 20 21 25 25 23 23 23 24 29 33 36 34 28
30 32 33 31 30 31 34 35 36 35 32 30 32 33 31 30 29 28 28 29 28 23 20 19 17 17 16 16 15 14 13 12 11 13 15 14 14 16 16 17 18 17 15 16 17 16 18 22 28 29 26 23 23 24 24 24 26 28 29 28 23 15 13 15 11 8 9 9 9 15 22 25 24 25 25 22 22 24 22 20 19 18 19 22 26 28 25 22
31 32 33 32 30 30 33 38 39 36 29 30 32 32 32 33 32 31 33 33 30 27 25 25 22 21 21 22 19 16 17 17 14 14 15 14 14 12 11 12 12 11 12 13 14 17 17 17 22 28 27 21 20 23 23 22 23 26 27 29 28 24 22 22 19 15 12 10 10 12 15 19 25 27 25 24 23 19 14 14 15 15 17 19 22 24 26 28
32 33 34 33 31 31 32 38 41 35 30 32 33 31 32 34 34 37 38 34 31 29 29 28 26 24 24 23 22 19 19 21 20 18 18 18 18 15 15 18 20 20 19 19 20 22 21 17 19 28 30 24 19 19 20 20 19 19 22 24 25 26 26 24 24 27 23 12 8 9 9 16 25 28 28 28 24 17 14 16 19 21 22 24 26 29 32 34
34 36 36 34 33 34 34 38 42 39 36 36 37 35 36 37 38 38 37 35 33 30 29 28 25 25 24 21 20 19 20 23 23 21 21 22 22 20 20 20 21 20 20 20 20 19 18 17 20 26 30 30 27 23 22 23 23 23 24 25 24 25 25 19 16 25 30 21 14 12 11 16 28 33 35 34 27 21 21 24 26 29 28 28 28 29 30 32
36 38 38 35 35 36 36 38 41 40 41 43 44 42 40 39 39 37 35 35 33 30 30 28 27 27 26 24 23 22 22 24 25 22 22 24 23 21 21 22 22 23 22 23 24 24 24 22 24 28 31 35 37 32 28 29 29 30 30 32 31 28 28 21 12 13 19 20 21 20 15 18 31 37 36 35 33 31 33 32 30 30 30 28 27 26 27 28
37 38 38 36 35 35 35 37 38 38 42 44 43 40 37 37 38 37 35 33 30 29 29 28 28 27 26 26 25 24 24 24 25 25 23 23 23 23 24 26 26 25 24 23 23 25 24 20 20 23 26 30 32 32 31 30 29 28 27 29 31 30 30 26 21 20 18 16 19 18 9 10 23 34 34 32 33 36 37 33 27 24 24 23 24 28 32 36
37 37 37 36 35 34 34 36 37 37 39 38 36 35 35 35 36 36 35 32 29 28 27 27 26 25 26 26 25 25 25 21 22 25 24 23 24 25 26 25 24 24 22 21 20 20 19 16 14 14 13 16 20 21 21 19 19 19 18 18 21 25 28 27 27 26 18 15 19 15 8 11 20 25 24 21 23 27 28 26 25 26 28 32 38 43 47 50
36 35 35 35 33 33 35 37 36 34 35 35 34 34 34 33 35 34 31 28 27 26 27 27 26 25 25 26 26 28 27 24 22 23 26 26 25 25 26 25 25 26 24 23 24 24 23 23 22 16 10 10 12 12 13 14 16 19 23 26 25 27 31 31 28 23 17 18 22 18 18 27 29 27 25 23 25 30 32 35 39 44 49 53 54 54 53 51
34 34 34 33 32 34 36 36 35 34 33 32 32 33 34 31 30 31 29 27 26 27 27 26 25 25 25 25 26 27 27 26 25 26 29 29 27 27 28 28 28 28 27 27 26 25 26 27 27 25 22 21 23 25 27 27 27 28 32 36 37 38 40 36 28 25 24 24 26 30 37 42 42 44 46 44 42 43 45 48 53 57 58 57 54 51 50 49
33 34 35 34 31 31 35 37 36 36 34 31 29 30 32 28 25 26 27 28 28 27 27 26 26 25 26 26 27 27 28 27 25 27 29 29 26 25 26 29 30 28 28 27 24 23 23 24 26 27 27 29 30 31 31 30 29 28 28 32 38 39 39 38 34 31 27 22 22 33 42 40 40 47 52 51 49 47 46 48 51 53 52 50 49 49 48 48
32 33 34 34 32 30 33 35 35 35 35 33 30 29 27 23 21 21 25 28 28 28 27 27 27 27 28 27 26 25 26 24 21 23 26 26 25 23 23 26 27 26 26 24 24 24 23 24 29 30 29 32 33 32 29 26 25 24 24 28 33 35 38 41 38 31 28 26 26 33 40 42 44 47 50 51 48 45 44 44 45 47 46 46 47 47 47 46
32 32 31 32 34 33 32 30 29 31 34 33 32 32 30 24 19 18 23 26 26 24 24 23 23 25 26 26 25 25 24 21 18 19 22 24 25 24 24 25 26 29 31 29 29 28 25 26 29 28 28 31 34 34 29 23 23 26 28 29 31 37 44 43 36 31 31 34 36 39 43 47 52 52 49 46 43 42 43 42 41 42 42 42 43 42 43 42
30 30 29 30 32 32 31 30 27 28 30 31 32 34 34 30 24 20 22 26 25 22 21 20 21 23 23 24 25 26 26 24 23 24 25 26 27 28 29 31 31 33 33 31 27 24 22 23 22 22 24 28 34 38 33 27 27 29 31 34 38 43 44 40 38 39 39 40 45 47 46 47 48 46 42 40 38 39 37 36 37 38 38 39 39 39 39 39
29 29 28 29 29 29 29 30 30 29 29 31 32 33 33 34 31 26 25 28 29 25 23 23 25 26 26 25 26 26 27 29 29 30 32 33 34 35 34 34 33 30 28 26 22 20 21 22 23 23 23 27 37 37 29 26 27 28 36 46 51 50 46 43 45 47 45 46 50 47 42 40 37 33 33 33 34 35 35 37 38 38 36 36 35 35 36 36
29 29 29 29 30 30 30 30 31 31 32 33 33 33 33 33 33 31 29 30 32 32 30 30 30 30 30 29 29 30 32 33 34 34 35 35 36 35 34 32 31 30 30 29 27 26 26 26 26 24 21 28 37 33 24 20 18 25 42 52 51 47 44 41 42 43 43 43 41 37 34 32 30 30 32 34 35 38 39 38 37 35 33 32 32 33 34 34
Wind_Direction
269 272 274 276 277 278 280 282 283 284 285 285 287 288 289 289 290 291 292 294 295 295 296 296 297 298 298 298 298 298 299 300 301 303 304 302 303 303 304 303 301 300 300 300 301 301 302 302 302 302 301 302 302 302 301 300 302 298 297 291 267 267 274 269 282 294 292 292 295 294 296 298 297 296 295 295 295 296 295 296 301 295 291 291 285 282 284 288
267 269 271 273 275 276 277 279 280 281 282 283 284 285 285 286 286 287 288 289 290 291 292 293 294 294 295 295 295 295 297 297 297 300 300 300 302 303 304 305 304 303 305 305 305 306 305 304 304 303 303 303 301 301 299 299 299 295 292 278 268 280 284 278 287 294 293 293 293 292 295 297 297 296 293 294 295 295 294 299 303 295 294 290 281 280 280 287
264 265 268 270 271 274 275 276 278 279 280 281 282 283 283 283 284 285 286 287 288 288 288 289 290 291 293 293 294 294 295 297 298 297 297 297 299 301 303 304 303 303 304 304 303 304 303 301 301 300 300 299 297 298 296 296 298 293 284 276 281 292 289 287 294 295 292 290 291 292 293 294 297 296 292 294 295 292 293 300 301 292 295 293 287 284 281 284
264 265 266 267 268 270 272 273 274 276 278 279 279 280 280 281 282 283 284 284 285 286 286 287 288 289 291 291 293 293 295 300 299 297 297 296 297 299 300 300 300 299 298 298 298 298 297 296 296 295 295 294 293 294 292 292 295 288 283 286 291 292 286 289 295 294 291 290 291 293 294 294 295 294 293 295 293 291 296 302 298 291 292 290 285 284 284 285
266 267 267 267 268 269 270 271 272 274 275 276 277 277 278 279 280 281 282 283 284 285 286 287 288 289 290 291 291 291 295 302 299 296 295 294 296 297 296 296 295 294 293 293 294 294 293 293 292 291 292 292 291 292 292 289 290 285 285 291 293 290 288 291 295 291 291 291 291 294 295 293 292 292 294 293 289 290 298 298 293 290 289 286 283 281 283 285
268 269 269 269 270 271 271 272 273 274 274 275 276 276 277 278 279 280 281 282 283 284 285 287 288 289 290 290 290 290 289 290 293 291 289 290 293 292 291 290 289 289 290 291 293 292 292 290 289 290 290 290 288 290 291 288 289 287 287 290 292 292 289 291 293 290 292 293 292 295 292 291 292 294 295 290 287 290 297 296 291 286 282 281 281 282 282 283
268 268 269 270 271 271 272 273 274 274 275 276 276 277 277 278 279 279 280 281 281 282 283 285 286 287 288 288 288 287 283 285 289 286 286 290 290 288 287 286 284 286 287 289 289 289 288 287 288 289 287 287 286 285 286 286 288 287 286 289 290 288 288 291 292 290 294 294 294 293 289 290 294 295 291 285 287 293 298 299 295 284 278 277 278 281 282 281
268 268 269 269 270 271 272 273 273 274 275 275 276 276 277 278 278 279 280 280 282 283 283 284 285 286 287 286 287 284 283 291 288 281 287 290 288 288 287 285 285 285 286 286 285 285 285 285 286 285 283 285 283 282 284 286 287 287 288 290 289 287 288 292 291 291 294 296 296 292 290 294 296 295 288 283 289 296 300 298 291 285 281 280 280 281 281 280
268 268 269 269 270 270 271 272 272 273 274 275 275 276 276 277 277 278 279 279 281 282 283 284 284 286 285 285 286 283 286 295 286 281 286 286 286 286 285 286 286 286 286 284 283 283 283 283 282 280 281 282 280 282 285 285 285 286 289 290 289 288 290 293 293 294 296 298 297 293 294 296 297 292 284 285 296 299 300 295 287 286 285 283 283 281 279 279
267 268 268 269 270 270 271 271 272 272 273 274 275 275 276 277 278 279 279 279 280 281 282 283 283 284 284 284 283 282 287 294 287 284 283 282 283 283 283 284 284 285 284 283 282 281 279 279 278 279 281 279 280 283 284 283 284 286 287 288 289 290 292 294 295 297 298 299 298 297 298 296 293 287 284 294 303 299 299 295 290 287 284 284 282 279 278 277
266 267 267 268 269 270 270 271 271 272 273 274 274 275 276 277 278 279 279 280 280 281 281 282 282 282 282 281 280 282 289 290 285 283 280 279 280 280 281 281 281 281 281 280 279 277 277 276 277 278 278 279 281 284 284 284 286 287 287 288 290 292 293 295 297 299 301 299 297 299 299 295 290 286 288 298 299 294 296 295 295 290 284 283 280 279 278 278
267 267 268 269 269 270 270 271 272 273 274 275 275 276 277 277 278 278 279 279 279 280 280 280 280 280 280 279 278 284 289 287 285 283 281 280 279 279 279 278 278 278 277 277 276 276 276 275 276 275 275 278 282 284 285 287 288 288 289 290 292 293 294 297 299 301 303 299 298 302 300 297 295 293 296 302 298 296 297 296 295 293 290 287 284 283 282 282
268 269 270 270 270 271 272 272 273 274 275 276 277 277 278 278 278 278 278 278 278 278 278 278 278 279 279 278 280 284 285 284 284 284 283 282 280 278 277 276 276 275 275 275 275 276 275 274 274 274 274 277 280 281 284 288 287 287 289 290 292 295 295 299 300 301 302 296 296 301 294 291 296 297 301 303 300 301 302 299 295 294 295 294 292 290 288 287
268 269 270 271 271 272 273 274 274 275 276 276 276 277 277 278 277 278 277 277 277 277 277 277 277 277 276 278 281 283 283 283 284 285 284 282 280 278 277 276 275 274 274 275 275 275 274 274 274 273 275 277 281 282 284 284 284 288 290 288 291 293 295 301 302 300 300 295 298 302 293 294 300 300 302 301 300 301 301 298 295 294 296 296 296 294 292 291
267 268 269 270 271 272 272 273 274 274 274 275 275 275 275 275 276 276 276 276 276 275 275 275 275 275 275 276 278 280 281 282 284 284 283 282 280 279 277 276 274 274 274 274 275 275 275 276 275 275 277 279 281 282 283 281 282 290 289 285 289 288 290 301 301 300 302 298 302 303 294 296 300 298 301 302 301 301 300 299 299 299 298 296 294 294 293 291
266 267 268 269 270 270 271 272 272 273 273 274 274 274 274 274 275 275 275 275 275 275 274 274 274 274 274 275 277 278 278 280 281 281 281 281 280 279 277 275 273 272 271 272 273 275 277 278 277 277 277 280 282 281 282 280 279 285 281 277 285 285 287 293 289 295 299 296 301 302 295 297 299 300 301 301 300 299 298 301 303 304 302 297 294 293 292 288
265 267 267 268 269 269 270 271 272 272 273 274 274 274 274 274 275 275 275 275 275 275 275 275 275 275 275 276 277 276 276 278 279 279 279 278 278 277 274 271 269 266 267 271 274 276 278 278 278 278 277 279 278 274 272 267 272 281 278 277 283 285 287 290 287 293 298 299 301 299 296 299 303 305 305 304 302 301 302 304 305 305 301 298 295 291 286 281
265 266 267 268 268 269 270 270 271 272 273 274 274 275 275 276 276 276 276 276 276 276 276 275 275 275 276 277 276 275 276 276 275 276 277 277 277 275 272 270 269 271 273 275 275 276 277 278 277 274 274 277 274 267 263 268 279 287 287 285 286 285 283 286 289 294 299 300 297 293 290 295 300 302 301 303 305 306 308 309 309 305 302 302 297 288 283 281
265 266 267 268 269 269 270 270 271 273 273 274 275 276 277 277 278 278 277 276 277 277 277 276 275 272 271 273 273 273 275 274 273 273 273 274 274 273 273 273 273 274 275 277 277 276 275 275 272 268 270 275 277 277 279 284 285 284 286 284 283 284 284 286 290 296 301 297 292 292 292 295 299 298 299 303 306 307 308 308 306 302 306 311 300 294 293 288
266 267 268 269 270 270 271 272 272 273 274 275 276 278 278 278 280 279 277 276 277 277 276 276 276 273 271 271 271 273 274 273 273 273 272 272 272 273 273 272 274 274 275 277 276 276 278 274 269 270 276 279 278 278 282 284 278 279 283 281 281 283 283 289 295 300 304 294 288 295 298 299 300 300 304 308 308 307 306 303 304 312 316 310 303 300 295 284
266 267 268 269 270 271 272 272 272 273 273 274 276 277 278 279 279 279 279 279 277 277 277 276 276 276 277 275 273 274 274 272 272 272 272 272 271 271 271 271 273 274 275 275 274 278 279 271 268 276 285 287 279 271 272 273 273 278 279 280 283 282 284 292 297 300 302 292 290 298 300 297 300 305 310 312 306 299 292 301 323 322 314 306 300 294 283 275
267 268 268 268 269 269 269 269 270 270 271 272 273 274 275 277 278 279 281 281 278 277 276 275 275 276 278 276 276 275 272 270 271 270 269 269 268 268 269 271 272 275 276 275 278 281 278 276 280 286 290 287 280 278 278 276 276 279 279 280 280 282 290 296 299 300 302 297 296 301 300 299 306 310 315 312 285 229 274 326 322 314 307 297 288 281 272 267
268 267 267 267 267 266 266 267 268 268 269 270 271 272 273 276 278 280 282 283 282 279 276 276 276 276 275 273 274 273 269 269 268 266 263 262 264 263 266 271 274 276 276 277 281 278 272 278 288 291 290 285 281 281 282 280 279 278 278 277 277 286 292 294 299 299 297 297 297 301 303 307 314 318 343 329 232 189 306 312 310 300 292 282 275 273 266 262
267 266 266 266 265 266 268 268 268 268 268 269 270 271 274 276 279 281 284 287 286 284 281 281 279 276 273 271 270 266 263 263 261 260 259 259 261 263 266 271 274 276 277 281 285 279 272 271 277 284 287 285 283 279 282 284 280 277 274 273 283 293 290 289 296 296 296 298 296 303 310 313 320 306 72 34 278 308 306 293 296 290 280 272 266 266 262 261
266 266 265 264 265 267 269 269 268 267 267 268 269 272 275 278 281 285 289 292 292 291 288 285 281 276 271 266 263 259 257 257 257 259 262 261 262 264 267 270 273 275 277 280 280 276 277 280 283 286 285 286 282 280 288 285 278 278 276 279 289 293 289 291 297 298 304 305 292 317 323 314 262 252 293 285 289 316 311 268 279 287 277 266 257 261 263 260
264 265 264 263 264 266 266 266 266 267 267 267 270 272 275 279 283 288 294 297 295 295 292 284 275 269 262 255 251 251 255 258 259 260 262 262 262 264 266 268 270 269 270 276 276 273 278 286 291 290 286 285 279 287 303 287 278 278 278 287 292 290 290 293 298 301 303 299 291 305 306 284 283 286 285 283 295 327 307 263 272 277 270 261 255 259 256 244
263 264 264 262 262 262 263 264 266 267 267 268 270 273 276 280 284 291 301 300 288 285 277 258 246 238 224 212 224 225 239 254 259 259 257 260 261 262 262 265 273 274 272 275 274 276 285 291 294 295 292 285 282 297 308 290 278 273 276 290 293 291 292 292 297 299 296 298 298 297 288 273 285 296 288 286 315 318 254 259 264 264 265 259 252 244 226 222
264 264 264 262 260 260 261 264 266 267 266 268 271 274 277 279 282 291 304 298 266 236 235 237 224 210 201 213 247 233 241 252 257 260 257 262 265 267 268 270 278 284 287 280 268 275 289 293 295 297 293 291 297 306 304 288 276 275 284 292 291 291 291 290 294 295 297 302 295 276 220 264 282 299 296 286 315 253 237 250 252 257 261 249 238 224 215 238
262 261 262 262 260 259 259 261 263 264 265 268 271 274 275 275 278 283 278 260 251 239 249 243 220 205 212 250 261 239 243 252 251 255 255 262 269 274 282 285 285 287 292 287 278 282 290 293 294 293 292 297 304 305 299 287 280 287 295 295 293 293 292 294 294 293 293 288 279 264 240 254 291 303 288 262 269 234 224 213 206 244 270 236 226 231 236 266
254 254 255 255 255 254 254 256 258 259 262 265 268 269 266 264 269 264 232 229 248 256 243 228 217 221 234 252 255 254 263 264 260 258 258 264 269 274 283 287 289 292 295 293 291 292 292 290 287 287 294 299 299 299 295 288 285 292 295 292 295 296 295 300 296 291 288 272 278 269 227 230 292 318 300 265 242 220 211 201 201 220 274 272 263 265 267 271
252 249 249 250 250 250 249 251 252 254 257 258 259 256 252 253 249 230 221 238 250 258 245 233 230 236 247 255 254 256 258 260 266 268 276 282 280 281 286 290 294 297 299 299 298 296 292 290 290 292 297 298 298 296 291 289 290 291 290 290 296 299 289 284 264 242 261 270 295 297 211 230 252 267 304 297 232 212 214 226 232 234 269 291 290 286 284 279
252 248 248 249 249 250 250 249 248 248 248 246 244 239 239 247 234 219 224 253 261 263 250 238 232 227 232 236 237 253 261 272 278 278 285 289 287 288 288 289 294 293 291 294 296 294 290 289 291 293 293 293 293 289 287 291 291 285 282 282 287 296 280 266 250 236 262 275 291 304 286 257 253 260 273 275 250 222 216 233 255 263 276 284 287 288 287 283
258 253 250 250 250 250 249 244 239 236 233 229 229 233 234 238 230 219 216 214 226 253 244 219 203 199 217 251 281 288 287 286 280 275 281 284 284 286 285 285 289 288 284 287 292 294 293 290 290 290 291 291 286 278 282 291 289 279 276 270 263 278 286 278 274 269 269 274 293 303 304 279 272 279 277 257 244 240 242 252 263 269 273 274 277 281 281 279
265 262 256 254 253 251 247 241 234 229 226 225 229 234 231 227 226 214 210 214 224 243 245 231 232 244 262 276 283 284 284 283 279 276 279 281 279 280 281 285 289 291 290 291 292 290 286 287 288 283 282 286 285 284 283 282 282 277 273 266 255 255 261 270 276 277 285 292 296 297 292 270 280 292 283 250 242 245 250 256 263 267 269 271 273 273 272 273
264 263 261 260 257 255 253 247 239 230 228 231 232 232 227 225 229 232 235 241 244 249 250 249 257 266 273 279 280 280 280 275 274 277 277 274 271 272 276 278 280 285 286 284 288 287 280 282 284 277 278 285 288 288 284 278 275 272 267 257 249 254 257 257 264 272 284 296 285 272 261 262 273 279 279 273 260 255 255 258 264 266 267 270 270 268 266 266
261 260 262 263 259 256 253 246 239 232 231 232 230 232 232 231 235 241 250 255 249 248 252 257 264 269 275 279 277 279 276 264 265 271 270 269 269 271 275 274 274 278 277 270 273 280 279 278 277 276 281 286 286 284 279 272 267 265 265 258 259 268 264 258 266 269 270 276 272 266 266 271 277 282 280 268 256 260 266 267 266 265 266 267 265 265 266 265
262 262 264 264 258 251 245 239 236 236 235 229 227 235 238 241 246 246 251 258 256 255 255 254 260 265 267 267 268 271 264 256 261 260 260 268 272 273 275 276 275 275 270 266 266 268 270 273 274 277 282 282 282 283 275 267 264 261 263 267 272 277 266 255 262 265 256 259 267 264 267 277 281 279 278 267 258 268 273 267 262 262 268 268 263 261 262 260
263 264 265 263 258 250 241 235 238 244 239 229 230 236 239 243 248 249 254 259 260 258 252 245 249 257 259 260 266 267 256 247 249 252 258 262 264 273 275 269 272 271 262 260 262 260 265 274 277 278 280 279 277 279 272 265 265 261 260 267 270 270 265 255 254 263 261 262 265 257 261 270 270 268 275 277 271 272 268 258 257 261 263 264 257 252 252 255
262 263 263 262 260 255 244 238 244 249 241 229 232 238 241 245 250 256 261 261 259 256 252 250 251 253 255 259 262 262 258 254 249 250 260 258 257 271 269 255 261 261 249 251 263 267 266 272 277 275 277 280 276 271 266 263 265 262 259 261 259 259 264 262 257 260 263 265 267 260 256 261 265 271 280 278 267 260 254 247 250 256 255 254 252 255 262 268
260 261 262 262 261 259 251 244 247 249 240 234 237 242 249 255 260 263 263 261 259 258 256 257 256 252 253 256 257 257 258 259 254 248 249 249 252 260 263 263 266 266 261 260 266 271 266 259 265 270 275 279 271 262 264 267 267 261 256 254 254 257 261 259 256 254 254 258 267 265 257 256 264 271 276 273 264 251 253 262 267 270 266 260 259 261 265 268
260 259 259 260 260 258 254 248 249 250 244 243 248 253 260 265 264 262 261 262 261 260 259 258 255 251 251 253 254 253 253 257 257 252 248 250 253 258 263 267 268 267 267 265 263 270 271 262 263 269 273 274 270 267 270 269 265 264 262 258 260 265 264 261 255 250 249 250 253 259 260 256 263 270 272 271 266 263 272 277 276 277 274 268 265 266 268 270
260 259 259 260 258 256 253 251 252 252 248 250 257 262 264 263 258 256 260 264 263 261 260 259 257 255 253 254 255 254 255 259 261 257 255 257 259 259 261 263 265 266 267 268 267 270 273 272 270 270 270 272 273 274 274 272 270 268 267 267 268 269 266 263 266 265 259 257 259 263 262 256 259 263 265 266 267 273 281 281 275 274 273 272 274 276 277 279
259 259 260 259 255 253 251 250 250 248 248 252 257 259 258 256 255 256 259 261 260 259 259 258 258 258 256 256 256 253 253 258 261 261 261 264 264 262 260 262 265 265 266 269 270 271 272 271 269 270 273 275 276 277 278 278 274 267 262 264 264 262 259 259 269 281 279 271 271 270 264 256 258 261 265 269 271 274 278 278 275 271 270 275 284 289 292 294
257 256 257 256 251 247 245 247 248 248 251 253 253 252 252 252 253 256 256 257 258 258 258 256 255 255 254 254 252 250 250 254 259 261 261 262 262 263 263 262 261 263 267 268 268 271 273 273 274 280 287 286 282 281 278 272 265 256 249 251 253 256 261 267 276 281 278 271 270 264 256 265 265 268 271 269 268 271 275 279 284 286 288 292 296 297 299 299
253 251 250 249 246 243 242 245 246 247 250 251 250 250 251 249 250 252 252 254 256 255 256 256 254 253 252 252 252 252 251 252 255 258 260 261 262 265 266 265 263 265 268 267 268 272 274 273 274 273 273 274 275 273 269 272 278 277 274 274 271 269 273 280 284 281 275 276 274 270 275 277 275 279 282 278 278 281 284 288 291 294 296 297 299 300 300 299
246 244 243 242 239 239 241 242 242 241 242 244 245 247 247 246 248 250 248 248 249 249 252 253 252 251 249 248 252 255 254 253 255 258 261 265 267 268 267 267 267 268 268 270 271 272 273 272 270 266 263 264 266 267 269 277 284 285 284 282 279 276 277 281 279 268 268 280 280 275 279 282 282 283 283 282 284 287 288 290 291 292 294 296 298 299 298 298
241 240 241 239 235 235 238 239 238 238 238 238 239 243 245 243 243 247 248 248 245 243 244 246 246 247 248 249 252 255 257 257 257 259 261 264 266 265 265 266 269 270 272 274 273 270 270 270 268 267 268 269 270 271 273 276 280 281 281 280 279 278 278 275 269 265 273 284 281 277 280 283 282 282 283 286 289 291 291 290 291 292 294 295 295 295 294 294
238 238 239 239 236 235 237 240 240 239 237 235 236 240 243 240 237 238 243 248 247 244 243 243 243 244 246 248 250 252 255 256 255 255 255 257 258 258 261 266 270 274 276 276 275 273 272 272 272 273 273 274 274 274 272 273 276 277 276 275 275 275 274 271 269 271 276 272 271 279 282 280 282 286 289 292 292 289 287 287 288 291 292 292 291 291 291 291
236 237 237 237 237 238 240 244 246 242 238 235 235 238 241 239 234 230 236 244 248 247 245 244 243 244 243 244 245 246 247 248 247 247 248 252 255 258 263 268 272 277 278 278 278 277 275 275 277 276 274 275 276 276 274 274 276 276 274 273 273 273 273 272 272 276 275 270 273 280 277 278 288 293 290 288 287 285 285 285 287 288 288 288 288 287 287 287
233 234 234 234 237 239 240 243 244 242 240 237 237 240 242 240 237 233 236 243 245 244 244 241 240 243 244 244 245 246 247 246 244 246 250 255 260 264 267 271 274 276 277 278 279 277 273 271 273 275 274 275 278 280 280 278 276 275 273 272 271 271 271 271 274 277 276 275 282 284 279 280 289 291 284 282 283 284 283 282 283 285 284 283 282 281 282 282
232 233 234 235 237 239 241 242 242 242 242 240 240 243 244 243 242 237 235 241 244 243 243 243 243 246 249 250 249 250 250 248 248 251 256 261 264 266 269 271 272 273 272 273 273 271 267 266 270 275 274 274 279 282 281 279 277 273 271 273 272 272 272 274 278 281 281 282 285 284 279 279 283 280 277 278 278 277 279 281 283 283 280 277 275 275 276 278
234 235 235 235 237 239 240 241 242 241 243 244 245 246 247 248 249 245 241 244 250 250 249 251 254 257 258 258 255 253 252 252 254 257 259 263 265 267 269 270 270 270 270 270 269 266 265 265 270 274 273 273 278 281 282 284 282 271 271 275 278 279 279 279 280 283 284 283 280 276 274 275 275 274 275 277 277 277 279 280 280 279 276 274 274 275 276 277
Height
3181 3182 3182 3182 3182 3182 3182 3182 3182 3182 3182 3182 3182 3182 3182 3182 3181 3181 3181 3181 3180 3180 3180 3180 3179 3179 3179 3179 3178 3178 3178 3178 3178 3177 3177 3176 3176 3176 3176 3176 3175 3175 3174 3174 3174 3173 3173 3173 3172 3172 3172 3171 3171 3171 3170 3170 3170 3169 3168 3168 3169 3170 3170 3169 3168 3168 3166 3165 3165 3163 3161 3161 3162 3160 3158 3158 3159 3159 3159 3160 3160 3158 3158 3158 3156 3155 3154 3154
3181 3181 3181 3181 3181 3181 3181 3181 3181 3181 3181 3181 3181 3181 3181 3181 3180 3180 3180 3180 3179 3179 3179 3178 3178 3178 3177 3177 3177 3177 3177 3177 3176 3176 3176 3175 3175 3175 3175 3174 3174 3173 3173 3173 3172 3172 3172 3172 3171 3171 3170 3170 3170 3170 3169 3169 3169 3168 3167 3167 3166 3167 3168 3167 3166 3166 3165 3163 3162 3162 3160 3159 3160 3160 3157 3155 3157 3157 3157 3158 3159 3156 3156 3156 3154 3153 3152 3152
3179 3180 3180 3180 3180 3180 3180 3180 3180 3180 3180 3180 3180 3180 3180 3179 3179 3179 3179 3178 3178 3178 3177 3177 3177 3177 3176 3176 3175 3175 3175 3175 3175 3175 3174 3174 3173 3173 3173 3173 3173 3172 3172 3171 3171 3171 3171 3170 3170 3170 3169 3169 3168 3168 3168 3167 3167 3166 3165 3164 3164 3165 3165 3164 3164 3163 3163 3161 3160 3160 3159 3157 3157 3157 3155 3153 3154 3155 3155 3156 3157 3155 3154 3154 3152 3151 3150 3150
3178 3178 3179 3179 3179 3179 3179 3179 3179 3179 3179 3179 3179 3178 3178 3178 3178 3178 3177 3177 3177 3177 3176 3176 3176 3176 3175 3174 3174 3173 3173 3174 3173 3173 3172 3172 3172 3172 3172 3171 3171 3171 3170 3170 3170 3169 3169 3169 3169 3168 3168 3167 3166 3166 3166 3165 3165 3164 3161 3162 3163 3163 3162 3161 3162 3160 3160 3159 3158 3158 3157 3155 3155 3155 3153 3152 3150 3151 3154 3155 3154 3153 3152 3152 3150 3149 3147 3147
3177 3177 3177 3177 3177 3177 3177 3177 3177 3177 3177 3177 3177 3177 3177 3176 3176 3176 3176 3176 3176 3175 3175 3175 3174 3174 3174 3173 3173 3172 3172 3173 3172 3171 3170 3170 3170 3170 3170 3170 3169 3169 3168 3168 3168 3168 3168 3167 3167 3167 3166 3166 3164 3164 3164 3163 3163 3162 3159 3159 3160 3160 3159 3159 3159 3157 3157 3157 3156 3156 3154 3153 3152 3152 3151 3150 3147 3148 3152 3153 3152 3151 3150 3148 3147 3147 3146 3145
3175 3175 3175 3175 3175 3175 3175 3175 3175 3175 3175 3175 3175 3175 3175 3175 3175 3174 3174 3174 3174 3174 3173 3173 3173 3173 3172 3172 3171 3170 3171 3172 3171 3169 3168 3169 3169 3169 3168 3168 3167 3167 3167 3166 3166 3166 3166 3166 3165 3165 3164 3164 3163 3162 3162 3161 3161 3159 3157 3157 3158 3157 3156 3156 3157 3153 3154 3154 3154 3154 3152 3150 3149 3149 3149 3146 3143 3146 3150 3150 3149 3148 3147 3145 3144 3143 3143 3142
3173 3173 3173 3173 3173 3173 3173 3173 3173 3173 3173 3173 3173 3173 3173 3173 3173 3172 3172 3172 3172 3172 3172 3172 3171 3171 3170 3169 3169 3168 3168 3171 3171 3168 3167 3167 3167 3167 3166 3166 3165 3165 3165 3165 3165 3164 3164 3164 3163 3164 3162 3162 3161 3160 3160 3159 3158 3156 3155 3156 3156 3154 3153 3154 3154 3151 3151 3151 3151 3150 3148 3148 3147 3146 3145 3142 3141 3144 3146 3146 3146 3145 3144 3142 3141 3141 3140 3139
3170 3171 3171 3171 3171 3171 3171 3171 3170 3170 3170 3170 3170 3170 3170 3170 3170 3170 3170 3170 3170 3170 3170 3170 3169 3169 3168 3167 3167 3165 3165 3169 3169 3166 3166 3166 3165 3165 3164 3164 3164 3163 3164 3163 3163 3163 3162 3162 3162 3161 3161 3160 3159 3158 3157 3157 3156 3153 3152 3153 3153 3151 3150 3151 3150 3148 3148 3148 3147 3146 3145 3145 3146 3143 3139 3138 3141 3142 3143 3143 3142 3141 3140 3140 3139 3138 3137 3136
3168 3168 3168 3168 3168 3168 3168 3168 3168 3168 3168 3168 3168 3168 3168 3168 3168 3168 3168 3168 3168 3168 3167 3167 3167 3167 3166 3165 3164 3162 3163 3167 3166 3165 3165 3164 3164 3163 3163 3162 3162 3161 3161 3161 3161 3161 3160 3160 3160 3159 3159 3158 3157 3156 3155 3154 3153 3151 3149 3149 3149 3148 3148 3147 3147 3146 3145 3145 3143 3141 3141 3142 3143 3139 3133 3136 3140 3139 3139 3139 3139 3138 3137 3137 3136 3135 3134 3133
3166 3166 3166 3166 3166 3166 3166 3166 3166 3166 3166 3166 3166 3166 3166 3166 3166 3166 3165 3166 3166 3165 3165 3165 3165 3165 3164 3163 3161 3159 3161 3164 3164 3164 3163 3162 3162 3161 3161 3160 3160 3159 3159 3159 3159 3158 3158 3158 3157 3157 3157 3156 3154 3153 3153 3151 3149 3149 3147 3145 3145 3145 3145 3144 3143 3143 3142 3141 3139 3136 3136 3138 3139 3135 3131 3136 3138 3135 3135 3135 3136 3135 3134 3134 3133 3131 3131 3130
3164 3164 3164 3164 3164 3164 3164 3164 3164 3164 3164 3164 3164 3164 3164 3164 3163 3163 3163 3163 3163 3163 3163 3163 3163 3162 3162 3161 3159 3157 3160 3162 3161 3161 3161 3161 3160 3159 3159 3158 3157 3157 3157 3156 3156 3156 3156 3155 3155 3155 3154 3153 3151 3151 3150 3148 3147 3146 3144 3142 3142 3142 3141 3141 3140 3140 3139 3137 3136 3134 3131 3133 3135 3132 3130 3134 3135 3133 3133 3132 3132 3132 3131 3131 3129 3128 3128 3127
3162 3162 3162 3162 3162 3161 3161 3161 3161 3161 3161 3161 3161 3161 3161 3161 3161 3161 3161 3161 3161 3161 3161 3161 3160 3160 3159 3158 3156 3157 3158 3158 3158 3158 3158 3158 3158 3157 3156 3156 3155 3154 3154 3153 3153 3153 3153 3153 3152 3152 3151 3150 3150 3149 3146 3145 3144 3143 3141 3139 3138 3139 3138 3138 3138 3137 3136 3132 3132 3132 3127 3127 3130 3128 3128 3130 3129 3129 3130 3129 3128 3127 3127 3127 3126 3125 3124 3124
3159 3159 3160 3160 3159 3159 3159 3159 3159 3159 3159 3159 3159 3159 3159 3159 3159 3159 3159 3159 3159 3159 3159 3158 3158 3158 3157 3155 3154 3156 3155 3155 3155 3155 3155 3155 3155 3154 3153 3153 3152 3151 3151 3150 3150 3150 3150 3150 3150 3149 3149 3148 3148 3147 3143 3142 3141 3140 3140 3137 3135 3135 3133 3135 3135 3134 3134 3130 3129 3130 3124 3123 3126 3126 3127 3127 3125 3125 3125 3126 3126 3124 3124 3123 3122 3121 3121 3121
3157 3157 3157 3157 3157 3157 3157 3157 3157 3157 3157 3157 3157 3156 3156 3156 3156 3156 3156 3156 3156 3156 3156 3156 3156 3155 3154 3153 3153 3153 3153 3152 3152 3152 3152 3152 3151 3151 3150 3150 3149 3149 3148 3148 3148 3147 3147 3147 3147 3146 3146 3146 3146 3144 3142 3140 3138 3138 3137 3134 3133 3131 3129 3132 3132 3130 3130 3126 3126 3127 3121 3119 3122 3123 3124 3124 3123 3122 3121 3121 3122 3122 3122 3120 3118 3117 3116 3117
3154 3154 3155 3155 3155 3155 3155 3154 3154 3154 3154 3154 3154 3153 3153 3153 3153 3153 3153 3153 3153 3153 3153 3153 3153 3152 3151 3151 3151 3150 3150 3149 3149 3149 3149 3148 3148 3148 3148 3147 3147 3146 3146 3145 3145 3145 3144 3144 3144 3144 3143 3144 3144 3142 3139 3138 3137 3137 3134 3131 3132 3130 3127 3129 3129 3127 3127 3122 3122 3123 3118 3116 3119 3120 3121 3121 3120 3118 3116 3117 3118 3118 3119 3117 3115 3113 3112 3112
3151 3151 3151 3152 3152 3152 3152 3152 3151 3151 3151 3151 3151 3150 3150 3150 3150 3150 3150 3150 3150 3150 3150 3149 3150 3149 3148 3148 3149 3148 3147 3147 3146 3146 3146 3145 3145 3145 3145 3144 3144 3144 3143 3143 3143 3142 3142 3141 3141 3141 3141 3142 3142 3139 3137 3136 3135 3135 3133 3129 3129 3129 3126 3128 3128 3126 3125 3121 3119 3118 3114 3113 3115 3116 3117 3118 3117 3115 3113 3113 3113 3113 3113 3113 3111 3109 3108 3106
3148 3148 3148 3148 3149 3149 3149 3148 3148 3148 3148 3148 3148 3147 3147 3147 3146 3146 3146 3146 3147 3146 3147 3146 3146 3146 3144 3145 3146 3144 3144 3144 3143 3143 3143 3143 3142 3141 3141 3141 3141 3141 3140 3140 3140 3139 3139 3138 3138 3138 3139 3140 3140 3138 3136 3135 3134 3134 3132 3128 3127 3127 3125 3125 3125 3124 3123 3120 3117 3114 3109 3108 3110 3111 3111 3112 3112 3111 3110 3110 3110 3109 3108 3108 3106 3105 3103 3101
3145 3145 3145 3145 3145 3146 3145 3145 3145 3145 3145 3145 3144 3144 3144 3143 3143 3143 3143 3143 3143 3143 3143 3142 3143 3143 3141 3142 3142 3141 3141 3141 3141 3141 3141 3140 3139 3139 3138 3138 3138 3138 3137 3137 3137 3136 3137 3135 3135 3135 3136 3136 3136 3136 3134 3132 3132 3133 3132 3128 3126 3125 3123 3123 3122 3122 3121 3117 3115 3113 3108 3105 3107 3108 3108 3108 3108 3106 3106 3107 3106 3105 3104 3103 3102 3100 3099 3097
3142 3142 3142 3142 3143 3143 3142 3142 3142 3142 3142 3142 3141 3141 3140 3140 3140 3139 3139 3140 3140 3140 3140 3139 3139 3140 3139 3139 3138 3138 3139 3139 3138 3138 3138 3138 3137 3136 3135 3135 3135 3135 3134 3134 3133 3133 3134 3132 3131 3133 3134 3133 3133 3133 3131 3130 3131 3131 3129 3127 3124 3121 3120 3120 3119 3120 3120 3114 3111 3110 3106 3104 3104 3104 3104 3105 3106 3104 3102 3103 3102 3101 3100 3099 3098 3097 3096 3095
3139 3139 3139 3139 3139 3139 3139 3139 3139 3139 3138 3138 3138 3138 3137 3137 3137 3135 3135 3136 3137 3137 3137 3136 3135 3135 3136 3136 3135 3136 3136 3136 3135 3135 3135 3135 3134 3133 3132 3131 3131 3131 3131 3131 3129 3129 3131 3129 3126 3129 3131 3132 3132 3131 3129 3128 3128 3128 3126 3123 3121 3119 3116 3117 3116 3116 3117 3111 3106 3106 3102 3100 3100 3100 3101 3102 3101 3100 3099 3099 3099 3099 3098 3096 3095 3095 3094 3091
3136 3136 3136 3136 3136 3136 3136 3136 3136 3136 3135 3135 3135 3134 3134 3133 3134 3132 3131 3132 3133 3133 3133 3133 3131 3131 3132 3132 3132 3133 3132 3132 3132 3132 3132 3131 3131 3129 3127 3127 3128 3127 3127 3128 3127 3126 3127 3125 3123 3126 3128 3129 3130 3129 3128 3127 3125 3124 3123 3120 3118 3117 3113 3113 3114 3112 3113 3108 3102 3103 3100 3097 3098 3097 3097 3098 3097 3096 3096 3096 3096 3096 3095 3093 3091 3091 3089 3086
3133 3133 3133 3133 3133 3133 3133 3132 3132 3132 3132 3132 3132 3131 3131 3130 3130 3129 3128 3127 3128 3130 3129 3129 3128 3127 3129 3127 3127 3129 3128 3127 3128 3128 3128 3127 3126 3126 3123 3123 3125 3124 3124 3124 3124 3124 3122 3120 3121 3124 3126 3126 3125 3125 3124 3123 3122 3121 3119 3117 3115 3114 3111 3109 3111 3109 3109 3105 3100 3100 3096 3093 3094 3094 3093 3094 3093 3093 3093 3093 3093 3092 3091 3089 3086 3086 3084 3082
3129 3129 3130 3130 3130 3130 3130 3129 3129 3129 3129 3129 3128 3128 3128 3128 3127 3126 3125 3123 3122 3126 3125 3124 3124 3124 3125 3123 3123 3125 3123 3123 3124 3122 3124 3123 3122 3122 3120 3120 3122 3122 3121 3121 3122 3122 3120 3119 3119 3120 3122 3122 3121 3121 3121 3119 3118 3117 3116 3115 3112 3113 3111 3107 3108 3107 3106 3103 3098 3096 3093 3089 3090 3090 3089 3091 3090 3091 3093 3091 3089 3088 3087 3085 3083 3081 3079 3077
3125 3126 3126 3127 3127 3127 3127 3126 3126 3126 3125 3125 3125 3125 3125 3125 3124 3123 3123 3120 3117 3120 3121 3120 3120 3119 3119 3118 3118 3119 3118 3119 3119 3117 3119 3120 3118 3119 3118 3118 3119 3119 3118 3118 3119 3117 3117 3118 3117 3118 3118 3118 3118 3118 3118 3116 3114 3113 3113 3113 3110 3110 3110 3107 3105 3104 3101 3100 3097 3095 3091 3087 3089 3089 3087 3090 3090 3090 3091 3087 3085 3084 3083 3081 3078 3076 3075 3074
3122 3123 3123 3124 3124 3124 3124 3123 3123 3123 3123 3123 3122 3122 3122 3122 3122 3121 3121 3118 3113 3114 3116 3116 3115 3114 3114 3114 3114 3114 3113 3114 3114 3114 3115 3116 3116 3116 3116 3116 3116 3116 3116 3116 3116 3114 3113 3115 3114 3115 3115 3115 3115 3114 3115 3113 3111 3111 3110 3110 3108 3107 3107 3105 3103 3101 3098 3098 3095 3095 3092 3086 3087 3089 3087 3088 3088 3087 3086 3082 3080 3080 3078 3076 3073 3073 3074 3073
3119 3119 3120 3121 3121 3121 3122 3121 3120 3121 3120 3120 3120 3119 3120 3120 3120 3119 3119 3116 3111 3109 3111 3111 3110 3110 3110 3110 3110 3110 3111 3111 3111 3112 3112 3112 3113 3113 3113 3113 3114 3114 3114 3114 3114 3112 3111 3112 3112 3112 3112 3112 3112 3112 3113 3112 3110 3108 3108 3108 3107 3106 3104 3102 3101 3100 3098 3097 3094 3095 3095 3087 3083 3086 3085 3084 3085 3083 3083 3080 3077 3075 3073 3072 3070 3071 3073 3073
3115 3116 3116 3117 3118 3118 3118 3118 3118 3118 3118 3118 3118 3117 3118 3118 3118 3118 3118 3115 3110 3107 3108 3107 3107 3107 3108 3109 3108 3109 3109 3109 3109 3110 3110 3110 3110 3111 3111 3111 3111 3112 3112 3112 3111 3109 3109 3110 3110 3110 3110 3110 3110 3110 3110 3110 3109 3106 3105 3106 3105 3104 3103 3100 3100 3099 3097 3095 3092 3092 3095 3088 3080 3081 3082 3081 3082 3080 3079 3077 3075 3072 3069 3069 3070 3070 3072 3072
3112 3112 3112 3114 3114 3115 3115 3116 3116 3116 3115 3116 3115 3116 3116 3116 3117 3117 3119 3116 3108 3104 3106 3106 3106 3106 3107 3107 3107 3108 3108 3108 3109 3108 3109 3109 3109 3110 3110 3110 3110 3110 3110 3110 3109 3108 3108 3108 3108 3108 3108 3107 3107 3108 3108 3108 3107 3104 3103 3103 3103 3102 3100 3099 3098 3097 3096 3093 3089 3088 3092 3087 3079 3079 3080 3078 3079 3079 3075 3074 3073 3070 3068 3069 3070 3071 3072 3072
3108 3108 3109 3109 3110 3111 3112 3112 3113 3113 3113 3113 3113 3113 3113 3114 3115 3116 3119 3116 3105 3103 3105 3105 3105 3106 3106 3106 3106 3106 3107 3107 3107 3107 3108 3108 3108 3108 3109 3109 3109 3108 3108 3108 3107 3107 3106 3106 3106 3106 3106 3106 3105 3105 3105 3105 3104 3102 3101 3100 3099 3099 3097 3097 3096 3094 3095 3091 3086 3085 3089 3085 3078 3077 3078 3077 3077 3076 3073 3071 3070 3070 3070 3069 3070 3071 3071 3071
3104 3104 3105 3105 3106 3107 3108 3109 3110 3110 3110 3110 3110 3111 3111 3111 3112 3114 3115 3109 3102 3102 3103 3103 3105 3105 3104 3105 3104 3104 3105 3106 3106 3106 3107 3107 3107 3107 3107 3107 3107 3106 3106 3105 3104 3104 3104 3103 3103 3103 3104 3104 3103 3103 3102 3102 3101 3100 3099 3097 3097 3095 3094 3094 3093 3092 3093 3087 3081 3081 3084 3085 3079 3076 3076 3076 3074 3073 3072 3070 3068 3068 3071 3071 3070 3070 3069 3069
3100 3101 3101 3102 3103 3104 3104 3105 3106 3106 3106 3107 3107 3108 3108 3108 3110 3111 3107 3102 3101 3103 3101 3102 3103 3102 3102 3103 3103 3103 3104 3104 3105 3105 3105 3105 3105 3106 3106 3106 3106 3105 3104 3103 3102 3101 3100 3099 3100 3100 3101 3101 3101 3100 3099 3099 3100 3099 3097 3096 3095 3093 3092 3091 3091 3092 3090 3083 3079 3080 3082 3084 3080 3075 3076 3076 3074 3072 3071 3069 3067 3067 3069 3070 3069 3068 3068 3067
3097 3097 3098 3099 3099 3100 3101 3101 3102 3103 3103 3103 3104 3104 3105 3106 3105 3102 3101 3101 3102 3101 3099 3100 3100 3100 3101 3101 3102 3102 3102 3103 3104 3104 3104 3104 3103 3103 3104 3105 3105 3104 3103 3102 3101 3099 3097 3097 3097 3097 3098 3099 3098 3097 3097 3096 3097 3097 3095 3096 3095 3093 3091 3089 3088 3088 3084 3079 3078 3079 3081 3080 3075 3073 3076 3077 3074 3071 3069 3068 3067 3066 3067 3067 3067 3066 3065 3065
3094 3095 3095 3096 3097 3097 3098 3098 3099 3099 3100 3100 3101 3101 3102 3102 3098 3095 3097 3100 3101 3099 3099 3100 3099 3099 3100 3099 3100 3101 3101 3102 3102 3102 3102 3102 3101 3101 3102 3102 3103 3103 3101 3100 3099 3097 3095 3093 3094 3095 3095 3095 3096 3096 3096 3094 3095 3095 3094 3095 3094 3092 3091 3089 3086 3083 3079 3078 3078 3079 3079 3075 3070 3070 3071 3073 3073 3069 3067 3066 3065 3065 3065 3065 3065 3064 3063 3063
3092 3092 3093 3093 3094 3094 3095 3096 3096 3096 3097 3097 3098 3099 3098 3096 3092 3091 3095 3097 3098 3098 3099 3099 3099 3098 3098 3098 3099 3099 3100 3100 3100 3100 3100 3100 3100 3099 3100 3100 3100 3100 3100 3098 3097 3096 3094 3091 3091 3092 3093 3093 3094 3095 3095 3094 3093 3092 3092 3093 3092 3091 3091 3088 3085 3081 3078 3077 3077 3078 3077 3071 3068 3067 3066 3068 3069 3066 3064 3064 3064 3063 3062 3061 3061 3061 3061 3060
3088 3089 3089 3090 3091 3092 3092 3093 3093 3094 3095 3095 3096 3095 3091 3088 3088 3090 3092 3093 3095 3096 3097 3097 3097 3097 3096 3096 3096 3097 3099 3098 3097 3098 3097 3097 3098 3097 3098 3099 3098 3098 3098 3097 3096 3094 3093 3090 3089 3090 3091 3091 3092 3093 3093 3093 3091 3089 3089 3089 3088 3088 3088 3086 3084 3082 3080 3078 3075 3073 3070 3065 3065 3064 3064 3066 3064 3061 3062 3062 3061 3061 3058 3057 3057 3057 3057 3056
3085 3085 3086 3087 3088 3089 3090 3090 3090 3091 3092 3093 3092 3088 3083 3084 3087 3088 3089 3090 3092 3093 3094 3095 3095 3094 3094 3094 3093 3093 3095 3095 3095 3095 3095 3094 3095 3094 3094 3095 3095 3095 3096 3096 3095 3093 3091 3089 3087 3087 3088 3089 3090 3090 3091 3091 3090 3087 3086 3086 3085 3085 3086 3085 3082 3081 3081 3077 3071 3068 3064 3061 3062 3061 3060 3061 3058 3055 3057 3057 3057 3056 3055 3055 3054 3053 3053 3052
3081 3082 3082 3083 3084 3085 3085 3086 3087 3087 3088 3089 3086 3081 3079 3082 3085 3086 3086 3087 3088 3090 3092 3092 3092 3091 3091 3091 3091 3091 3091 3092 3092 3093 3092 3092 3091 3089 3090 3091 3091 3092 3093 3093 3092 3092 3090 3086 3084 3085 3085 3086 3087 3087 3087 3087 3087 3086 3084 3083 3083 3083 3083 3083 3081 3079 3079 3074 3067 3065 3062 3060 3061 3057 3054 3056 3054 3052 3053 3052 3053 3052 3052 3053 3052 3051 3049 3049
3077 3078 3078 3080 3080 3080 3081 3082 3082 3083 3084 3084 3079 3076 3077 3079 3081 3082 3083 3084 3085 3087 3089 3089 3089 3089 3089 3089 3089 3089 3088 3089 3090 3090 3090 3090 3088 3086 3087 3088 3088 3088 3089 3090 3089 3090 3088 3084 3081 3082 3082 3082 3084 3084 3082 3083 3084 3083 3082 3082 3082 3081 3079 3080 3080 3078 3076 3070 3064 3063 3060 3058 3057 3055 3053 3053 3050 3049 3049 3049 3050 3050 3049 3049 3049 3048 3046 3046
3073 3073 3073 3075 3076 3076 3077 3077 3077 3079 3080 3078 3074 3073 3074 3075 3078 3079 3080 3081 3083 3083 3084 3084 3085 3086 3085 3085 3086 3086 3085 3086 3087 3088 3087 3087 3085 3084 3084 3085 3085 3085 3086 3087 3087 3086 3087 3084 3079 3078 3078 3079 3080 3080 3079 3079 3080 3079 3079 3079 3080 3079 3077 3077 3076 3074 3072 3067 3062 3061 3057 3054 3053 3052 3053 3052 3048 3046 3047 3047 3048 3048 3048 3047 3047 3046 3045 3044
3069 3069 3069 3071 3072 3072 3073 3073 3072 3073 3073 3071 3070 3071 3072 3073 3075 3075 3076 3077 3079 3079 3079 3080 3081 3082 3081 3082 3082 3083 3082 3082 3083 3084 3084 3083 3083 3082 3082 3081 3082 3082 3083 3084 3084 3083 3084 3082 3078 3076 3076 3075 3076 3077 3076 3077 3078 3077 3077 3077 3076 3075 3075 3073 3070 3069 3067 3063 3060 3059 3053 3049 3051 3051 3050 3049 3047 3046 3046 3046 3046 3045 3045 3045 3045 3044 3043 3042
3065 3064 3063 3066 3068 3068 3069 3068 3067 3068 3067 3066 3067 3068 3069 3071 3071 3070 3071 3073 3074 3075 3075 3076 3077 3077 3078 3078 3079 3079 3079 3078 3078 3080 3079 3079 3080 3079 3079 3078 3078 3079 3079 3080 3081 3080 3080 3079 3077 3075 3074 3071 3071 3074 3075 3074 3074 3074 3074 3074 3074 3073 3072 3069 3064 3062 3062 3059 3057 3056 3048 3044 3049 3049 3046 3046 3046 3045 3044 3044 3043 3043 3042 3041 3041 3040 3040 3039
3060 3058 3058 3062 3063 3063 3064 3062 3062 3063 3061 3061 3062 3063 3065 3066 3066 3066 3067 3068 3070 3071 3071 3072 3072 3073 3074 3074 3075 3076 3075 3074 3074 3075 3074 3075 3076 3076 3076 3075 3075 3076 3077 3077 3077 3076 3076 3076 3074 3072 3070 3068 3067 3069 3070 3069 3070 3071 3070 3070 3071 3070 3069 3066 3061 3058 3058 3055 3053 3051 3043 3040 3045 3046 3044 3043 3043 3043 3042 3041 3040 3040 3039 3037 3037 3037 3036 3036
3055 3054 3054 3057 3058 3058 3058 3056 3056 3056 3054 3055 3058 3059 3060 3060 3061 3063 3063 3064 3066 3067 3067 3068 3068 3069 3070 3070 3070 3071 3071 3070 3069 3070 3071 3071 3072 3072 3072 3072 3072 3073 3074 3073 3073 3072 3072 3072 3070 3067 3066 3065 3064 3064 3064 3064 3065 3065 3065 3065 3065 3064 3064 3062 3058 3057 3055 3052 3051 3049 3041 3037 3040 3042 3041 3040 3040 3039 3038 3037 3036 3035 3035 3034 3034 3034 3033 3032
3050 3050 3050 3051 3052 3052 3051 3049 3050 3049 3049 3052 3053 3054 3056 3056 3057 3058 3059 3060 3062 3063 3063 3063 3064 3065 3065 3066 3066 3066 3067 3067 3065 3066 3067 3067 3067 3068 3068 3069 3069 3069 3070 3070 3070 3069 3069 3068 3068 3066 3065 3063 3062 3061 3060 3059 3060 3060 3060 3061 3060 3060 3059 3057 3055 3055 3051 3048 3048 3045 3038 3036 3037 3038 3038 3037 3036 3035 3034 3032 3031 3030 3030 3030 3030 3029 3028 3027
3045 3045 3045 3046 3047 3046 3045 3045 3046 3046 3047 3049 3049 3050 3052 3052 3052 3054 3056 3057 3058 3059 3059 3059 3060 3061 3061 3062 3061 3062 3063 3063 3063 3062 3063 3063 3064 3064 3064 3065 3065 3065 3066 3066 3066 3066 3066 3065 3066 3065 3064 3062 3060 3059 3058 3057 3057 3057 3057 3057 3057 3058 3057 3053 3053 3052 3046 3043 3044 3042 3036 3034 3035 3036 3036 3035 3034 3032 3030 3029 3028 3026 3026 3025 3024 3023 3022 3021
3040 3039 3039 3040 3041 3041 3040 3041 3042 3043 3044 3046 3046 3046 3047 3048 3049 3051 3052 3053 3054 3055 3055 3055 3056 3057 3057 3058 3057 3057 3058 3059 3059 3059 3059 3059 3060 3061 3061 3061 3061 3061 3062 3062 3062 3063 3062 3061 3062 3061 3060 3059 3058 3056 3056 3056 3055 3054 3053 3053 3053 3053 3053 3052 3050 3046 3043 3040 3039 3038 3035 3032 3032 3033 3033 3032 3032 3030 3029 3027 3026 3024 3022 3021 3020 3018 3016 3015
3034 3033 3033 3035 3036 3036 3035 3037 3038 3039 3041 3043 3042 3043 3043 3044 3046 3048 3048 3049 3050 3051 3051 3051 3052 3053 3053 3053 3054 3054 3054 3055 3056 3056 3056 3056 3057 3057 3056 3056 3056 3057 3058 3058 3058 3059 3059 3057 3057 3057 3055 3055 3054 3053 3053 3053 3052 3051 3051 3049 3048 3048 3048 3046 3042 3039 3041 3039 3033 3032 3033 3029 3028 3029 3028 3027 3028 3027 3025 3024 3022 3020 3018 3017 3016 3014 3012 3011
3028 3028 3029 3030 3031 3030 3031 3032 3034 3036 3037 3039 3039 3040 3040 3041 3043 3045 3045 3044 3045 3047 3047 3047 3048 3049 3049 3049 3050 3050 3051 3052 3052 3052 3053 3053 3053 3053 3052 3052 3053 3053 3054 3054 3054 3056 3056 3053 3052 3052 3051 3050 3049 3049 3049 3049 3048 3048 3048 3045 3044 3043 3040 3038 3035 3036 3040 3036 3028 3029 3030 3024 3022 3025 3023 3023 3023 3021 3019 3018 3017 3016 3014 3012 3011 3009 3008 3006
3024 3024 3026 3027 3026 3027 3028 3029 3031 3032 3033 3035 3035 3036 3036 3037 3039 3041 3041 3040 3041 3042 3043 3043 3044 3044 3044 3046 3046 3046 3048 3048 3048 3049 3049 3049 3049 3049 3049 3049 3049 3049 3050 3050 3051 3052 3051 3049 3048 3048 3045 3044 3044 3043 3044 3045 3045 3044 3043 3041 3040 3036 3032 3031 3032 3033 3033 3030 3026 3027 3024 3019 3019 3019 3018 3017 3018 3016 3015 3014 3012 3011 3010 3008 3006 3004 3003 3001
3020 3021 3022 3023 3023 3024 3026 3027 3028 3029 3030 3031 3031 3031 3033 3033 3035 3037 3037 3037 3037 3038 3039 3040 3040 3040 3041 3042 3042 3043 3044 3045 3045 3045 3045 3045 3046 3046 3046 3046 3046 3046 3046 3046 3047 3047 3047 3045 3044 3044 3042 3040 3039 3039 3040 3042 3041 3039 3037 3035 3033 3028 3026 3027 3028 3027 3026 3023 3021 3021 3017 3014 3015 3013 3011 3011 3011 3010 3010 3009 3007 3006 3005 3003 3001 3000 2998 2997
3017 3018 3019 3020 3020 3021 3023 3023 3025 3025 3026 3027 3026 3027 3029 3029 3031 3033 3033 3032 3033 3034 3035 3035 3035 3036 3037 3038 3039 3040 3040 3040 3041 3041 3042 3042 3042 3042 3042 3042 3042 3042 3042 3043 3043 3043 3044 3042 3041 3041 3038 3035 3035 3036 3035 3036 3036 3033 3029 3026 3023 3022 3022 3022 3022 3021 3021 3017 3015 3014 3012 3010 3010 3009 3007 3006 3006 3006 3005 3003 3002 3001 2999 2997 2996 2995 2995 2994
3014 3015 3016 3017 3017 3018 3019 3020 3021 3021 3021 3022 3023 3024 3025 3025 3026 3028 3028 3028 3029 3030 3031 3031 3031 3033 3034 3034 3035 3036 3036 3036 3037 3037 3038 3038 3037 3038 3038 3038 3038 3038 3037 3038 3039 3039 3040 3038 3038 3039 3034 3030 3032 3032 3031 3033 3031 3024 3018 3016 3016 3017 3017 3016 3015 3016 3015 3013 3011 3009 3007 3007 3006 3005 3004 3001 3000 3001 3000 2998 2997 2996 2994 2992 2991 2991 2991 2990